Satellite: ISS
Catalog number: 25544
Epoch time:      09021.90854292
Element set:    0117
Inclination:      051.6436 deg
RA of node:       335.7578 deg
Eccentricity:    0.0007718
Arg of perigee:   292.9948 deg
Mean anomaly:     166.3593 deg
Mean motion:   15.70502208 rev/day
Decay rate:     1.1432e-04 rev/day^2
Epoch rev:           58294
Checksum:              318

Satellite: CO-58
Catalog number: 28895
Epoch time:      09022.67916017
Element set:     214
Inclination:      098.0803 deg
RA of node:       277.2194 deg
Eccentricity:    0.0019116
Arg of perigee:   084.3632 deg
Mean anomaly:     275.9733 deg
Mean motion:   14.59735353 rev/day
Decay rate:       1.03e-06 rev/day^2
Epoch rev:           17250
Checksum:              316

Satellite: FALCON
Catalog number: 30776
Epoch time:      09021.91161310
Element set:    0496
Inclination:      035.4344 deg
RA of node:       266.8302 deg
Eccentricity:    0.0000359
Arg of perigee:   009.0824 deg
Mean anomaly:     350.9899 deg
Mean motion:   15.03152552 rev/day
Decay rate:       3.26e-06 rev/day^2
Epoch rev:           10307
Checksum:              269

Satellite: MAST
Catalog number: 31126
Epoch time:      09022.71155682
Element set:     510
Inclination:      098.0110 deg
RA of node:       084.0327 deg
Eccentricity:    0.0095197
Arg of perigee:   011.9697 deg
Mean anomaly:     348.3715 deg
Mean motion:   14.53472573 rev/day
Decay rate:       -8.7e-07 rev/day^2
Epoch rev:            9390
Checksum:              293

Satellite: CAPE1
Catalog number: 31130
Epoch time:      09021.64142105
Element set:    0510
Inclination:      098.0133 deg
RA of node:       081.5213 deg
Eccentricity:    0.0103484
Arg of perigee:   019.6513 deg
Mean anomaly:     340.8618 deg
Mean motion:   14.52027282 rev/day
Decay rate:        7.1e-07 rev/day^2
Epoch rev:           09342
Checksum:              238

Satellite: COMPASS
Catalog number: 32787
Epoch time:      09021.81691518
Element set:    0267
Inclination:      097.9635 deg
RA of node:       086.7510 deg
Eccentricity:    0.0016529
Arg of perigee:   144.6613 deg
Mean anomaly:     215.5691 deg
Mean motion:   14.81536573 rev/day
Decay rate:       3.87e-06 rev/day^2
Epoch rev:           03977
Checksum:              332

Satellite: AAUSAT2
Catalog number: 32788
Epoch time:      09022.67465421
Element set:     261
Inclination:      097.9618 deg
RA of node:       087.6379 deg
Eccentricity:    0.0015857
Arg of perigee:   142.7618 deg
Mean anomaly:     217.4694 deg
Mean motion:   14.81654031 rev/day
Decay rate:       2.48e-06 rev/day^2
Epoch rev:            3990
Checksum:              332

Satellite: DO-64
Catalog number: 32789
Epoch time:      09021.94975661
Element set:    0276
Inclination:      097.9673 deg
RA of node:       087.0006 deg
Eccentricity:    0.0016323
Arg of perigee:   144.0132 deg
Mean anomaly:     216.2183 deg
Mean motion:   14.81595663 rev/day
Decay rate:       5.54e-06 rev/day^2
Epoch rev:           03979
Checksum:              328

Satellite: CO-66
Catalog number: 32791
Epoch time:      09021.91107040
Element set:    0254
Inclination:      097.9660 deg
RA of node:       086.8723 deg
Eccentricity:    0.0016696
Arg of perigee:   142.6069 deg
Mean anomaly:     217.6311 deg
Mean motion:   14.81376666 rev/day
Decay rate:       -3.8e-07 rev/day^2
Epoch rev:           03975
Checksum:              322

Satellite: RS-30
Catalog number: 32953
Epoch time:      09022.42291743
Element set:     213
Inclination:      082.5037 deg
RA of node:       347.2528 deg
Eccentricity:    0.0019633
Arg of perigee:   133.1822 deg
Mean anomaly:     227.0907 deg
Mean motion:   12.42999448 rev/day
Decay rate:        1.0e-07 rev/day^2
Epoch rev:            3028
Checksum:              278

/EX




_______________________________________________
Via the Keps mailing list courtesy of AMSAT-NA
http://amsat.org/mailman/listinfo/keps

--- ViaMAIL!/WC v1.60d
 * Origin: Chowdanet (401-724-4410) telnet://chowdanet.com  (1:323/120)